Regional Weather Roundup
Issued by NWS

Home | Current Version | Previous Version | Text Only | Print | Product List | Glossary On
Versions: 1 2 3 4 5 6 7 8 9 10 11 12 13 14 15 16 17 18 19 20 21 22 23 24 25 26 27 28 29 30 31 32 33 34 35 36 37 38 39 40 41 42 43 44 45 46 47 48 49 50
000
ASUS46 KSEW 180510
RWRWA

WASHINGTON REGIONAL WEATHER ROUNDUP
NATIONAL WEATHER SERVICE SEATTLE WA
900 PM PST TUE JAN 17 2017

NOTE:"FAIR" INDICATES FEW OR NO CLOUDS BELOW 12,000 FEET WITH NO
SIGNIFICANT WEATHER AND/OR OBSTRUCTIONS TO VISIBILITY.

WAZ507-509-555>559-180600-
SEATTLE, TACOMA, EVERETT, AND VICINITY

CITY           SKY/WX    TMP DP  RH WIND       PRES   REMARKS
EVERETT        CLOUDY    43  43 100 SE10      29.50S FOG
BOEING FIELD   RAIN      44  44 100 SE5       29.52F FOG
RENTON         RAIN      44  31  60 SE6       29.52F
SEATAC AIRPORT LGT RAIN  45  44  97 SE5       29.52S FOG
JBLM-MCCHORD   LGT RAIN  51  51  99 S10       29.51R
PUYALLUP       LGT RAIN  52  52 100 S7        29.51R
BREMERTON      CLOUDY    46  45  93 S17G25    29.55S
JBLM-FT LEWIS  LGT RAIN  51  51  99 S14       29.51R
TACOMA NARROWS LGT RAIN  47  47 100 S9        29.52S
$$

WAZ001-503-506-510-514-515-180600-
NORTH INTERIOR

CITY           SKY/WX    TMP DP  RH WIND       PRES   REMARKS
BELLINGHAM     LGT RAIN  53  47  79 S28G40    29.38R
FRIDAY HARBOR  LGT RAIN  49  44  83 SE24G37   29.38S
EASTSOUND      LGT RAIN  48  45  87 S10G26    29.35S
PORT ANGELES   LGT RAIN  48  47  96 CALM      29.34R
EDIZ HOOK      MOCLDY    53  43  69 SW14      29.34R
PORT TOWNSEND    N/A     48  46  93 SE17G31   29.40R
NAS WHIDBEY    NOT AVBL
ARLINGTON      NOT AVBL
BURLINGTON     CLOUDY    48  45  87 S14G21    29.44S
$$

WAZ020-022-039-040-504-511-512-180600-
SOUTHWEST INTERIOR

CITY           SKY/WX    TMP DP  RH WIND       PRES   REMARKS
SHELTON        RAIN      45  44  97 CALM      29.49S FOG
OLYMPIA        LGT RAIN  47  46  97 S17G30    29.51S
CHEHALIS       LGT RAIN  48  46  93 S17       29.55R
KELSO          CLOUDY    35  34  96 SE15G22   29.60F WCI  25
VANCOUVER      LGT RAIN  33  30  88 SE14      29.64F FOG     WCI  23
SCAPPOOSE, OR  LGT RAIN  33  33 100 S5        29.64F FOG
PORTLAND, OR   FRZ RAIN  32  30  92 SE22      29.64F FOG     WCI  19
$$

WAZ021-516-517-180600-
WASHINGTON COAST

CITY           SKY/WX    TMP DP  RH WIND       PRES   REMARKS
FORKS          LGT RAIN  49  49 100 S24G37    29.36R FOG
HOQUIAM        LGT RAIN  51  49  92 S35G47    29.46S FOG
ASTORIA, OR    RAIN      54  48  80 S24G40    29.51R
$$

WAZ019-023-024-040-567>569-180600-
CASCADE MOUNTAINS AND COLUMBIA GORGE

CITY           SKY/WX    TMP DP  RH WIND       PRES   REMARKS
STAMPEDE PASS  NOT AVBL
TROUTDALE, OR  FRZ RAIN  32  28  85 E31G45    29.66F VSB 1/4 WCI  17
THE DALLES, OR FRZ RAIN  22  18  85 CALM      29.90F
$$

WAZ026-027-041>044-520-521-180600-
EAST SLOPES

CITY           SKY/WX    TMP DP  RH WIND       PRES   REMARKS
OMAK           LGT SNOW  21  17  84 S5        29.82F FOG
WENATCHEE      MIX PCPN  18  16  92 CALM      29.84F FOG
ELLENSBURG     FRZ RAIN  22  17  81 CALM      29.77F
YAKIMA         CLOUDY    21  16  81 CALM      29.84F HAZE
$$

WAZ028-034-035-180600-
COLUMBIA BASIN

CITY           SKY/WX    TMP DP  RH WIND       PRES   REMARKS
EPHRATA        FRZ RAIN  23  17  78 CALM      29.82F
MOSES LAKE     FRZ RAIN  22  18  85 CALM      29.84F FOG
PASCO          FRZ RAIN  20  18  92 N3        29.92F FOG
HERMISTON, OR  FRZ RAIN  19  15  84 CALM      29.88F FOG
$$

WAZ036>038-180600-
NORTHEAST WASHINGTON

CITY           SKY/WX    TMP DP  RH WIND       PRES   REMARKS
SPOKANE GEIGER FRZ RAIN  28  25  88 E5        29.80F FOG
SPOKANE FELTS  FRZ RAIN  30  27  88 CALM      29.83F FOG
FAIRCHILD AFB  FRZ RAIN  30  28  93 E5        29.79S
COEURDALENE,ID FLURRIES  29  26  89 N12       29.81F WCI  19
DEER PARK      MIX PCPN  29  25  85 CALM      29.81F FOG
$$

WAZ029>033-180600-
SOUTHEAST WASHINGTON

CITY           SKY/WX    TMP DP  RH WIND       PRES   REMARKS
PULLMAN        CLOUDY    30  20  66 SE21      29.84F WCI  17
LEWISTON, ID   CLOUDY    34  19  54 SE15      29.90F WCI  24
WALLA WALLA    CLOUDY    16  11  80 NW9       29.82F
PENDLETON, OR  FRZ RAIN  18  15  88 NW14      29.79S WCI   4
$$



USA.gov is the U.S. government's official web portal to all federal, state and local government web resources and services.